UAL2022 TAPA-KSAN

Flight info

Callsign UAL2022
Flight time N/A
Altitude 30000
Route ANU UG633 GABAR Y280 ACONY Y308 ANTOX R507 GTK A555 RAJAY BR53V SWIMM/N0506F320 BR53V SKIPS Y290 BAGGS DCT REMIS Y280 LEV J86 FST/N0494F340 J86 ELP J50 GBN J18 HOGGZ LUCKI1
Aircraft B77W/H-SDE1E2E3FGHIJ2J3J4J5M1RWXY/LB1D1

Departure

Time 2026-04-19 03:15
Airport V. C. Bird International Airport (TAPA)

Arrival

Time N/A
Airport San Diego International Airport (KSAN)
Time Latitude Longitude Altitude Speed Heading
2026-04-19 02:10 17.14125 -61.78971 56 ft 0 kts 328°
2026-04-19 03:02 17.14125 -61.78970 57 ft 0 kts 328°
2026-04-19 03:03 17.14123 -61.78969 57 ft 2 kts 328°
2026-04-19 03:04 17.14110 -61.78961 56 ft 2 kts 328°
2026-04-19 03:04 17.14098 -61.78953 56 ft 2 kts 332°
2026-04-19 03:04 17.14084 -61.78948 56 ft 2 kts 355°
2026-04-19 03:04 17.14069 -61.78949 56 ft 2 kts 15°
2026-04-19 03:05 17.14055 -61.78955 56 ft 2 kts 33°
2026-04-19 03:05 17.14044 -61.78965 56 ft 2 kts 53°
2026-04-19 03:05 17.14036 -61.78978 57 ft 2 kts 62°
2026-04-19 03:05 17.14034 -61.78983 57 ft 1 kts 61°
2026-04-19 03:06 17.14051 -61.78955 56 ft 6 kts 58°
2026-04-19 03:06 17.14067 -61.78928 55 ft 1 kts 58°
2026-04-19 03:06 17.14068 -61.78926 55 ft 0 kts 58°
2026-04-19 03:09 17.14068 -61.78925 55 ft 0 kts 58°
2026-04-19 03:09 17.14074 -61.78915 54 ft 3 kts 58°
2026-04-19 03:09 17.14093 -61.78881 53 ft 6 kts 62°
2026-04-19 03:09 17.14106 -61.78820 51 ft 10 kts 90°
2026-04-19 03:10 17.14103 -61.78751 49 ft 0 kts 95°
2026-04-19 03:10 17.14103 -61.78746 49 ft 2 kts 95°
2026-04-19 03:11 17.14095 -61.78688 47 ft 11 kts 108°
2026-04-19 03:11 17.14041 -61.78663 47 ft 9 kts 211°
2026-04-19 03:11 17.13970 -61.78762 51 ft 23 kts 237°
2026-04-19 03:11 17.13868 -61.78934 56 ft 31 kts 239°
2026-04-19 03:12 17.13746 -61.79140 62 ft 32 kts 238°
2026-04-19 03:12 17.13635 -61.79328 63 ft 29 kts 238°
2026-04-19 03:12 17.13538 -61.79493 66 ft 26 kts 238°
2026-04-19 03:12 17.13438 -61.79662 68 ft 28 kts 238°
2026-04-19 03:13 17.13330 -61.79843 71 ft 29 kts 238°
2026-04-19 03:13 17.13231 -61.80013 71 ft 26 kts 239°
2026-04-19 03:13 17.13167 -61.80114 69 ft 3 kts 201°
2026-04-19 03:13 17.13141 -61.80120 69 ft 4 kts 195°
2026-04-19 03:14 17.13127 -61.80142 69 ft 6 kts 272°
2026-04-19 03:14 17.13146 -61.80149 70 ft 2 kts 45°
2026-04-19 03:14 17.13162 -61.80126 70 ft 0 kts 57°
2026-04-19 03:14 17.13167 -61.80119 70 ft 6 kts 58°
2026-04-19 03:15 17.13252 -61.79977 72 ft 51 kts 58°
2026-04-19 03:15 17.13579 -61.79422 67 ft 126 kts 58°
2026-04-19 03:15 17.14159 -61.78449 127 ft 183 kts 61°
2026-04-19 03:15 17.14917 -61.77366 937 ft 186 kts 42°
2026-04-19 03:16 17.16081 -61.76888 1763 ft 191 kts
2026-04-19 03:16 17.17430 -61.77223 2098 ft 220 kts 332°
2026-04-19 03:16 17.18548 -61.78453 2495 ft 246 kts 298°
2026-04-19 03:16 17.19058 -61.80232 2946 ft 267 kts 282°
2026-04-19 03:17 17.19390 -61.82184 3452 ft 283 kts 281°
2026-04-19 03:17 17.19674 -61.84211 4255 ft 287 kts 278°
2026-04-19 03:17 17.19906 -61.86266 5094 ft 289 kts 278°
2026-04-19 03:17 17.20136 -61.88347 5952 ft 289 kts 278°
2026-04-19 03:18 17.20368 -61.90443 6762 ft 292 kts 278°
2026-04-19 03:18 17.20596 -61.92507 7578 ft 292 kts 278°
2026-04-19 03:18 17.20833 -61.94647 8367 ft 294 kts 278°
2026-04-19 03:18 17.21066 -61.96760 9137 ft 296 kts 278°
2026-04-19 03:19 17.21300 -61.98883 9904 ft 298 kts 278°
2026-04-19 03:19 17.21541 -62.01066 10498 ft 307 kts 278°
2026-04-19 03:19 17.21790 -62.03313 10906 ft 322 kts 278°
2026-04-19 03:19 17.22056 -62.05724 11327 ft 338 kts 278°
2026-04-19 03:20 17.22329 -62.08202 11768 ft 352 kts 278°
2026-04-19 03:20 17.22617 -62.10813 12228 ft 366 kts 278°
2026-04-19 03:20 17.22913 -62.13509 12684 ft 379 kts 277°
2026-04-19 03:20 17.23215 -62.16261 13127 ft 392 kts 278°
2026-04-19 03:21 17.23532 -62.19150 13771 ft 398 kts 277°
2026-04-19 03:21 17.23845 -62.22014 14510 ft 401 kts 277°
2026-04-19 03:21 17.24164 -62.24937 15255 ft 403 kts 277°
2026-04-19 03:21 17.24481 -62.27842 15977 ft 406 kts 277°
2026-04-19 03:22 17.24801 -62.30788 16678 ft 408 kts 277°
2026-04-19 03:22 17.25120 -62.33722 17350 ft 411 kts 277°
2026-04-19 03:22 17.25444 -62.36695 18007 ft 414 kts 277°
2026-04-19 03:22 17.25770 -62.39703 18633 ft 417 kts 277°
2026-04-19 03:23 17.26096 -62.42709 19245 ft 420 kts 277°
2026-04-19 03:23 17.26423 -62.45733 19863 ft 423 kts 276°
2026-04-19 03:23 17.26749 -62.48745 20461 ft 426 kts 276°
2026-04-19 03:23 17.27083 -62.51835 21085 ft 427 kts 276°
2026-04-19 03:24 17.27415 -62.54911 21678 ft 429 kts 276°
2026-04-19 03:24 17.27748 -62.57993 22227 ft 432 kts 276°
2026-04-19 03:24 17.28083 -62.61102 22767 ft 435 kts 276°
2026-04-19 03:24 17.28426 -62.64282 23331 ft 437 kts 276°
2026-04-19 03:25 17.28763 -62.67413 23879 ft 439 kts 276°
2026-04-19 03:25 17.29102 -62.70557 24453 ft 440 kts 275°
2026-04-19 03:25 17.29452 -62.73711 24996 ft 442 kts 277°
2026-04-19 03:25 17.30059 -62.76862 25472 ft 445 kts 281°
2026-04-19 03:26 17.30786 -62.80063 25939 ft 449 kts 281°
2026-04-19 03:26 17.31500 -62.83182 26430 ft 451 kts 281°
2026-04-19 03:26 17.32231 -62.86382 26968 ft 452 kts 281°
2026-04-19 03:26 17.32961 -62.89585 27487 ft 453 kts 281°
2026-04-19 03:27 17.33696 -62.92820 27968 ft 455 kts 281°
2026-04-19 03:27 17.34417 -62.95993 28424 ft 457 kts 281°
2026-04-19 03:27 17.35154 -62.99242 28863 ft 460 kts 281°
2026-04-19 03:27 17.35897 -63.02510 29289 ft 462 kts 281°
2026-04-19 03:28 17.36650 -63.05796 29809 ft 463 kts 280°
2026-04-19 03:28 17.37399 -63.09072 30001 ft 465 kts 280°
2026-04-19 03:28 17.38134 -63.12288 30006 ft 461 kts 280°
2026-04-19 03:29 17.39612 -63.18765 30004 ft 458 kts 280°
2026-04-19 03:29 17.41097 -63.25290 30003 ft 459 kts 280°
2026-04-19 03:30 17.42571 -63.31774 30006 ft 459 kts 280°
2026-04-19 03:30 17.44032 -63.38217 30002 ft 459 kts 280°
2026-04-19 03:31 17.45517 -63.44774 30001 ft 459 kts 280°
2026-04-19 03:31 17.46985 -63.51263 29999 ft 458 kts 280°
2026-04-19 03:32 17.48457 -63.57784 30006 ft 460 kts 280°
2026-04-19 03:32 17.49944 -63.64291 29999 ft 461 kts 283°
2026-04-19 03:33 17.52443 -63.70442 30010 ft 465 kts 294°
2026-04-19 03:33 17.55555 -63.76448 30012 ft 468 kts 294°
2026-04-19 03:34 17.58652 -63.82429 30010 ft 465 kts 294°
2026-04-19 03:34 17.61725 -63.88379 30006 ft 467 kts 294°
2026-04-19 03:35 17.64823 -63.94385 30011 ft 467 kts 294°
2026-04-19 03:35 17.67905 -64.00368 30009 ft 467 kts 294°
2026-04-19 03:36 17.71004 -64.06390 30008 ft 466 kts 294°
2026-04-19 03:36 17.74043 -64.12303 30011 ft 467 kts 294°
2026-04-19 03:37 17.77144 -64.18342 30017 ft 466 kts 294°
2026-04-19 03:37 17.80215 -64.24329 30016 ft 466 kts 294°
2026-04-19 03:38 17.83274 -64.30297 30017 ft 466 kts 295°
2026-04-19 03:38 17.86353 -64.36310 30015 ft 465 kts 294°
2026-04-19 03:39 17.89412 -64.42292 30020 ft 467 kts 295°
2026-04-19 03:39 17.92480 -64.48294 30008 ft 465 kts 294°
2026-04-19 03:40 17.95555 -64.54318 30008 ft 465 kts 295°
2026-04-19 03:40 17.98595 -64.60278 30003 ft 465 kts 295°
2026-04-19 03:41 18.01657 -64.66287 29999 ft 467 kts 294°
2026-04-19 03:41 18.04663 -64.72190 30003 ft 464 kts 294°
2026-04-19 03:42 18.07695 -64.78152 30003 ft 467 kts 294°
2026-04-19 03:42 18.10735 -64.84134 30005 ft 464 kts 294°
2026-04-19 03:43 18.13748 -64.90070 30008 ft 464 kts 295°
2026-04-19 03:43 18.16747 -64.95984 30015 ft 465 kts 295°
2026-04-19 03:44 18.19758 -65.01926 30015 ft 464 kts 294°
2026-04-19 03:44 18.22768 -65.07873 30012 ft 466 kts 295°
2026-04-19 03:45 18.25798 -65.13863 30011 ft 464 kts 295°
2026-04-19 03:45 18.28814 -65.19833 30007 ft 464 kts 295°
2026-04-19 03:46 18.31849 -65.25848 30004 ft 465 kts 295°
2026-04-19 03:46 18.34848 -65.31796 30003 ft 466 kts 295°
2026-04-19 03:47 18.37885 -65.37824 30004 ft 465 kts 295°
2026-04-19 03:47 18.40858 -65.43732 30003 ft 465 kts 295°
2026-04-19 03:48 18.43904 -65.49792 30003 ft 467 kts 295°
2026-04-19 03:48 18.46937 -65.55829 30003 ft 465 kts 295°
2026-04-19 03:49 18.49947 -65.61829 30002 ft 466 kts 295°
2026-04-19 03:49 18.52978 -65.67876 30019 ft 466 kts 295°
2026-04-19 03:50 18.55987 -65.73885 30015 ft 465 kts 295°
2026-04-19 03:50 18.58996 -65.79899 30017 ft 467 kts 295°
2026-04-19 03:51 18.62009 -65.85928 30017 ft 466 kts 295°
2026-04-19 03:51 18.65006 -65.91931 30025 ft 464 kts 295°
2026-04-19 03:52 18.68030 -65.97993 30019 ft 466 kts 295°
2026-04-19 03:52 18.71030 -66.04014 30015 ft 467 kts 295°
2026-04-19 03:53 18.74029 -66.10038 30012 ft 465 kts 295°
2026-04-19 03:53 18.77046 -66.16105 30013 ft 468 kts 295°
2026-04-19 03:54 18.80063 -66.22177 30006 ft 466 kts 295°
2026-04-19 03:54 18.83071 -66.28238 30007 ft 466 kts 295°
2026-04-19 03:55 18.86069 -66.34286 30007 ft 465 kts 295°
2026-04-19 03:55 18.89042 -66.40287 30005 ft 464 kts 295°
2026-04-19 03:56 18.92049 -66.46364 30005 ft 465 kts 296°
2026-04-19 03:56 18.95571 -66.52156 30004 ft 467 kts 302°
2026-04-19 03:57 18.99247 -66.57803 30005 ft 468 kts 302°
2026-04-19 03:57 19.02951 -66.63507 30004 ft 467 kts 302°
2026-04-19 03:58 19.06632 -66.69185 30008 ft 467 kts 302°
2026-04-19 03:58 19.10290 -66.74833 30014 ft 467 kts 302°
2026-04-19 03:59 19.13979 -66.80540 30011 ft 466 kts 302°
2026-04-19 03:59 19.17640 -66.86205 30012 ft 467 kts 302°
2026-04-19 04:00 19.21300 -66.91876 30016 ft 465 kts 302°
2026-04-19 04:00 19.24951 -66.97539 30013 ft 465 kts 302°
2026-04-19 04:01 19.28600 -67.03203 30014 ft 465 kts 302°
2026-04-19 04:01 19.34060 -67.11688 30017 ft 466 kts 302°
2026-04-19 04:02 19.37705 -67.17360 30014 ft 464 kts 302°
2026-04-19 04:02 19.41343 -67.23026 30009 ft 465 kts 302°
2026-04-19 04:03 19.44984 -67.28701 30012 ft 465 kts 302°
2026-04-19 04:03 19.48620 -67.34375 30011 ft 463 kts 302°
2026-04-19 04:04 19.52272 -67.40079 30010 ft 465 kts 302°
2026-04-19 04:04 19.55903 -67.45755 30011 ft 464 kts 302°
2026-04-19 04:05 19.59525 -67.51421 30008 ft 464 kts 302°
2026-04-19 04:05 19.63152 -67.57103 30008 ft 465 kts 303°
2026-04-19 04:06 19.66770 -67.62774 30009 ft 466 kts 302°
2026-04-19 04:06 19.70381 -67.68441 30022 ft 465 kts 302°
2026-04-19 04:07 19.74034 -67.74178 30024 ft 465 kts 302°
2026-04-19 04:07 19.77658 -67.79875 30023 ft 464 kts 302°
2026-04-19 04:08 19.81266 -67.85554 30025 ft 464 kts 303°
2026-04-19 04:08 19.84884 -67.91251 30028 ft 466 kts 303°
2026-04-19 04:09 19.88526 -67.96993 30023 ft 465 kts 303°
2026-04-19 04:09 19.92147 -68.02708 30023 ft 465 kts 303°
2026-04-19 04:10 19.95748 -68.08397 30022 ft 463 kts 303°
2026-04-19 04:10 19.99363 -68.14113 30022 ft 465 kts 303°
2026-04-19 04:11 20.02931 -68.19760 30022 ft 466 kts 303°
2026-04-19 04:11 20.06525 -68.25454 30029 ft 464 kts 303°
2026-04-19 04:12 20.10141 -68.31188 30021 ft 466 kts 303°
2026-04-19 04:12 20.13771 -68.36951 30030 ft 464 kts 303°
2026-04-19 04:13 20.17365 -68.42661 30028 ft 466 kts 303°
2026-04-19 04:13 20.20975 -68.48402 30023 ft 464 kts 303°
2026-04-19 04:14 20.24575 -68.54134 30028 ft 465 kts 303°
2026-04-19 04:14 20.27962 -68.59968 30025 ft 465 kts 300°
2026-04-19 04:15 20.31169 -68.65929 30032 ft 465 kts 300°
2026-04-19 04:15 20.34390 -68.71884 30030 ft 463 kts 300°
2026-04-19 04:16 20.37617 -68.77835 30029 ft 465 kts 300°
2026-04-19 04:16 20.40860 -68.83810 30029 ft 464 kts 300°
2026-04-19 04:17 20.44090 -68.89761 30032 ft 465 kts 300°
2026-04-19 04:17 20.47341 -68.95753 30026 ft 465 kts 300°
2026-04-19 04:18 20.50565 -69.01699 30031 ft 464 kts 301°
2026-04-19 04:18 20.53820 -69.07710 30027 ft 465 kts 301°
2026-04-19 04:19 20.57048 -69.13676 30029 ft 465 kts 301°
2026-04-19 04:19 20.60266 -69.19630 30025 ft 463 kts 301°
2026-04-19 04:20 20.63504 -69.25626 30025 ft 464 kts 301°
2026-04-19 04:20 20.66726 -69.31599 30026 ft 463 kts 301°
2026-04-19 04:21 20.69943 -69.37568 30028 ft 463 kts 301°
2026-04-19 04:21 20.73154 -69.43535 30026 ft 463 kts 301°
2026-04-19 04:22 20.76369 -69.49515 30024 ft 463 kts 302°
2026-04-19 04:22 20.79575 -69.55484 30025 ft 461 kts 301°
2026-04-19 04:23 20.82769 -69.61435 30024 ft 463 kts 302°
2026-04-19 04:23 20.85964 -69.67397 30025 ft 461 kts 301°
2026-04-19 04:24 20.89155 -69.73358 30025 ft 461 kts 302°
2026-04-19 04:24 20.92218 -69.79361 30031 ft 464 kts 297°
2026-04-19 04:25 20.94921 -69.85644 30026 ft 463 kts 297°
2026-04-19 04:25 20.97634 -69.91909 30020 ft 463 kts 297°
2026-04-19 04:26 21.00368 -69.98186 30025 ft 465 kts 297°
2026-04-19 04:26 21.03101 -70.04450 30023 ft 463 kts 297°
2026-04-19 04:27 21.05822 -70.10678 30019 ft 462 kts 297°
2026-04-19 04:27 21.08547 -70.16917 30023 ft 463 kts 297°
2026-04-19 04:28 21.11212 -70.23216 30032 ft 466 kts 294°
2026-04-19 04:28 21.13559 -70.29692 30028 ft 464 kts 294°
2026-04-19 04:29 21.15908 -70.36158 30025 ft 465 kts 294°
2026-04-19 04:29 21.18257 -70.42593 30022 ft 464 kts 294°
2026-04-19 04:30 21.20621 -70.49054 30022 ft 464 kts 294°
2026-04-19 04:30 21.22975 -70.55492 30020 ft 463 kts 295°
2026-04-19 04:31 21.25325 -70.61916 30018 ft 465 kts 295°
2026-04-19 04:31 21.27676 -70.68355 30021 ft 464 kts 294°
2026-04-19 04:32 21.30038 -70.74826 30020 ft 466 kts 294°
2026-04-19 04:32 21.32391 -70.81284 30017 ft 463 kts 294°
2026-04-19 04:33 21.34725 -70.87697 30018 ft 465 kts 294°
2026-04-19 04:33 21.37080 -70.94179 30016 ft 464 kts 295°
2026-04-19 04:34 21.39429 -71.00649 30016 ft 464 kts 295°
2026-04-19 04:34 21.41761 -71.07084 30014 ft 463 kts 295°
2026-04-19 04:35 21.44182 -71.13549 30005 ft 464 kts 300°
2026-04-19 04:35 21.47308 -71.19562 30014 ft 460 kts 303°
2026-04-19 04:36 21.50502 -71.25543 30020 ft 460 kts 303°
2026-04-19 04:36 21.53674 -71.31496 30016 ft 461 kts 303°
2026-04-19 04:37 21.56863 -71.37492 30019 ft 461 kts 303°
2026-04-19 04:37 21.60020 -71.43437 30016 ft 460 kts 303°
2026-04-19 04:38 21.63208 -71.49448 30012 ft 460 kts 303°
2026-04-19 04:38 21.66359 -71.55397 30012 ft 460 kts 303°
2026-04-19 04:39 21.69517 -71.61365 30008 ft 460 kts 303°
2026-04-19 04:39 21.72702 -71.67393 30009 ft 459 kts 303°
2026-04-19 04:40 21.75838 -71.73334 30008 ft 457 kts 303°
2026-04-19 04:40 21.78983 -71.79297 30009 ft 458 kts 303°
2026-04-19 04:41 21.82127 -71.85265 30008 ft 462 kts 303°
2026-04-19 04:41 21.85291 -71.91282 30006 ft 459 kts 303°
2026-04-19 04:42 21.88445 -71.97283 30005 ft 460 kts 303°
2026-04-19 04:42 21.91602 -72.03297 30003 ft 460 kts 303°
2026-04-19 04:43 21.94750 -72.09300 30001 ft 461 kts 303°
2026-04-19 04:43 21.97912 -72.15337 30001 ft 459 kts 303°
2026-04-19 04:44 22.01050 -72.21336 29993 ft 460 kts 303°
2026-04-19 04:44 22.04188 -72.27343 29998 ft 460 kts 303°
2026-04-19 04:45 22.07314 -72.33334 30002 ft 461 kts 303°
2026-04-19 04:45 22.10461 -72.39371 30010 ft 461 kts 303°
2026-04-19 04:46 22.13583 -72.45371 30011 ft 461 kts 302°
2026-04-19 04:46 22.16555 -72.51518 30014 ft 461 kts 301°
2026-04-19 04:47 22.19488 -72.57636 30017 ft 461 kts 301°
2026-04-19 04:47 22.22452 -72.63808 30018 ft 461 kts 301°
2026-04-19 04:48 22.25474 -72.69917 30018 ft 462 kts 303°
2026-04-19 04:48 22.28704 -72.75944 30022 ft 461 kts 303°
2026-04-19 04:49 22.31915 -72.81959 30028 ft 461 kts 303°
2026-04-19 04:49 22.35107 -72.87962 30025 ft 461 kts 303°
2026-04-19 04:50 22.38306 -72.93992 30021 ft 461 kts 303°
2026-04-19 04:50 22.41478 -72.99984 30019 ft 460 kts 303°
2026-04-19 04:51 22.44678 -73.06037 30016 ft 460 kts 303°
2026-04-19 04:51 22.47856 -73.12055 30014 ft 460 kts 303°
2026-04-19 04:52 22.51019 -73.18055 30020 ft 460 kts 303°
2026-04-19 04:52 22.54203 -73.24101 30024 ft 461 kts 303°
2026-04-19 04:53 22.57367 -73.30117 30024 ft 461 kts 303°
2026-04-19 04:53 22.60528 -73.36134 30023 ft 460 kts 303°
2026-04-19 04:54 22.63702 -73.42182 30020 ft 461 kts 303°
2026-04-19 04:54 22.66859 -73.48206 30023 ft 459 kts 303°
2026-04-19 04:55 22.70010 -73.54224 30022 ft 459 kts 303°
2026-04-19 04:55 22.73175 -73.60278 30019 ft 460 kts 303°
2026-04-19 04:56 22.76339 -73.66336 30023 ft 459 kts 303°
2026-04-19 04:56 22.79485 -73.72365 30024 ft 462 kts 303°
2026-04-19 04:57 22.82647 -73.78436 30023 ft 459 kts 303°
2026-04-19 04:57 22.85783 -73.84460 30019 ft 461 kts 303°
2026-04-19 04:58 22.88934 -73.90524 30021 ft 458 kts 303°
2026-04-19 04:58 22.92084 -73.96590 30024 ft 460 kts 302°
2026-04-19 04:59 22.95224 -74.02644 30022 ft 459 kts 303°
2026-04-19 04:59 22.98363 -74.08706 30021 ft 458 kts 303°
2026-04-19 05:00 23.01473 -74.14717 30022 ft 460 kts 302°
2026-04-19 05:00 23.04618 -74.20805 30020 ft 460 kts 303°
2026-04-19 05:01 23.07736 -74.26847 30021 ft 458 kts 303°
2026-04-19 05:01 23.10862 -74.32910 30031 ft 458 kts 303°
2026-04-19 05:02 23.13979 -74.38966 30034 ft 457 kts 303°
2026-04-19 05:02 23.17045 -74.44987 30032 ft 459 kts 302°
2026-04-19 05:03 23.20135 -74.51080 30030 ft 457 kts 302°
2026-04-19 05:03 23.23213 -74.57153 30029 ft 458 kts 302°
2026-04-19 05:04 23.26278 -74.63206 30029 ft 457 kts 302°
2026-04-19 05:04 23.29346 -74.69273 30034 ft 456 kts 302°
2026-04-19 05:05 23.32398 -74.75314 30028 ft 457 kts 302°
2026-04-19 05:05 23.35455 -74.81374 30030 ft 456 kts 302°
2026-04-19 05:06 23.38492 -74.87402 30027 ft 455 kts 302°
2026-04-19 05:06 23.41541 -74.93459 30026 ft 455 kts 302°
2026-04-19 05:07 23.44584 -74.99511 30028 ft 455 kts 302°
2026-04-19 05:07 23.47622 -75.05563 30027 ft 455 kts 302°
2026-04-19 05:08 23.52172 -75.14639 30024 ft 455 kts 302°
2026-04-19 05:09 23.55225 -75.20738 30027 ft 455 kts 302°
2026-04-19 05:09 23.58317 -75.26738 30019 ft 451 kts 307°
2026-04-19 05:10 23.62011 -75.32278 30025 ft 449 kts 310°
2026-04-19 05:10 23.65743 -75.37785 30024 ft 449 kts 310°
2026-04-19 05:11 23.69383 -75.43172 30025 ft 448 kts 310°
2026-04-19 05:11 23.73070 -75.48637 30024 ft 449 kts 310°
2026-04-19 05:12 23.76799 -75.54171 30023 ft 449 kts 310°
2026-04-19 05:12 23.80484 -75.59648 30021 ft 448 kts 310°
2026-04-19 05:13 23.84155 -75.65110 30026 ft 449 kts 309°
2026-04-19 05:13 23.87856 -75.70624 30026 ft 447 kts 309°
2026-04-19 05:14 23.91529 -75.76102 30020 ft 448 kts 309°
2026-04-19 05:14 23.95219 -75.81611 30022 ft 449 kts 309°
2026-04-19 05:15 23.98917 -75.87139 30021 ft 447 kts 309°
2026-04-19 05:15 24.02617 -75.92676 30021 ft 448 kts 309°
2026-04-19 05:16 24.06289 -75.98176 30020 ft 447 kts 309°
2026-04-19 05:16 24.09948 -76.03664 30017 ft 449 kts 309°
2026-04-19 05:17 24.13641 -76.09211 30032 ft 448 kts 309°
2026-04-19 05:17 24.17302 -76.14713 30032 ft 446 kts 309°
2026-04-19 05:18 24.20959 -76.20216 30032 ft 445 kts 309°
2026-04-19 05:18 24.24625 -76.25739 30031 ft 448 kts 309°
2026-04-19 05:19 24.28272 -76.31240 30033 ft 446 kts 309°
2026-04-19 05:19 24.31930 -76.36764 30030 ft 446 kts 309°
2026-04-19 05:20 24.35601 -76.42313 30030 ft 447 kts 309°
2026-04-19 05:20 24.39237 -76.47817 30029 ft 446 kts 309°
2026-04-19 05:21 24.42895 -76.53359 30030 ft 447 kts 309°
2026-04-19 05:21 24.46540 -76.58887 30032 ft 446 kts 309°
2026-04-19 05:22 24.50176 -76.64408 30029 ft 446 kts 309°
2026-04-19 05:22 24.53896 -76.70060 30136 ft 463 kts 309°
2026-04-19 05:22 24.55787 -76.72938 30635 ft 464 kts 309°
2026-04-19 05:23 24.57638 -76.75758 31533 ft 456 kts 309°
2026-04-19 05:23 24.59477 -76.78565 32592 ft 443 kts 309°
2026-04-19 05:23 24.61247 -76.81265 33551 ft 433 kts 309°
2026-04-19 05:23 24.63000 -76.83937 34008 ft 435 kts 309°
2026-04-19 05:24 24.64789 -76.86665 34024 ft 436 kts 309°
2026-04-19 05:24 24.68347 -76.92097 34026 ft 433 kts 309°
2026-04-19 05:25 24.71821 -76.97408 34025 ft 433 kts 309°
2026-04-19 05:25 24.75343 -77.02797 34024 ft 433 kts 309°
2026-04-19 05:26 24.78818 -77.08122 34022 ft 434 kts 309°
2026-04-19 05:26 24.82310 -77.13480 34024 ft 434 kts 309°
2026-04-19 05:27 24.85774 -77.18800 34027 ft 432 kts 309°
2026-04-19 05:27 24.89288 -77.24202 34027 ft 433 kts 309°
2026-04-19 05:28 24.92733 -77.29504 34029 ft 433 kts 309°
2026-04-19 05:28 24.96211 -77.34863 34033 ft 433 kts 309°
2026-04-19 05:29 24.99544 -77.40005 34037 ft 433 kts 309°
2026-04-19 05:29 25.02832 -77.45601 34036 ft 438 kts 301°
2026-04-19 05:30 25.05206 -77.51714 34036 ft 442 kts 297°
2026-04-19 05:30 25.07549 -77.57976 34032 ft 441 kts 297°
2026-04-19 05:31 25.09836 -77.64093 34028 ft 440 kts 297°
2026-04-19 05:31 25.12174 -77.70355 34049 ft 441 kts 297°
2026-04-19 05:32 25.14463 -77.76494 34044 ft 440 kts 297°
2026-04-19 05:32 25.16764 -77.82674 34043 ft 440 kts 297°
2026-04-19 05:33 25.19026 -77.88756 34036 ft 441 kts 296°
2026-04-19 05:33 25.21346 -77.95008 34036 ft 438 kts 297°
2026-04-19 05:34 25.23592 -78.01063 34035 ft 440 kts 297°
2026-04-19 05:34 25.25924 -78.07364 34035 ft 440 kts 296°
2026-04-19 05:35 25.28196 -78.13511 34035 ft 440 kts 296°
2026-04-19 05:35 25.30348 -78.19791 34038 ft 443 kts 290°
2026-04-19 05:36 25.31893 -78.26260 34030 ft 443 kts 289°
2026-04-19 05:36 25.33442 -78.32833 34032 ft 443 kts 289°
2026-04-19 05:37 25.34991 -78.39419 34029 ft 444 kts 289°
2026-04-19 05:37 25.36544 -78.46030 34031 ft 443 kts 289°
2026-04-19 05:38 25.38102 -78.52673 34028 ft 443 kts 289°
2026-04-19 05:38 25.39634 -78.59220 34027 ft 442 kts 289°
2026-04-19 05:39 25.41170 -78.65799 34028 ft 442 kts 289°
2026-04-19 05:39 25.42649 -78.72145 34035 ft 442 kts 289°
2026-04-19 05:40 25.44173 -78.78710 34034 ft 442 kts 289°
2026-04-19 05:40 25.45668 -78.85168 34032 ft 442 kts 289°
2026-04-19 05:41 25.47183 -78.91722 34030 ft 441 kts 288°
2026-04-19 05:41 25.48688 -78.98250 34030 ft 440 kts 288°
2026-04-19 05:42 25.50199 -79.04816 34028 ft 441 kts 289°
2026-04-19 05:42 25.51699 -79.11340 34028 ft 441 kts 288°
2026-04-19 05:43 25.53188 -79.17831 34026 ft 441 kts 288°
2026-04-19 05:43 25.54707 -79.24470 34026 ft 441 kts 288°
2026-04-19 05:44 25.56194 -79.31061 34024 ft 441 kts 288°
2026-04-19 05:44 25.57624 -79.37573 34023 ft 439 kts 288°
2026-04-19 05:45 25.59053 -79.44083 34023 ft 441 kts 288°
2026-04-19 05:45 25.60498 -79.50680 34021 ft 440 kts 288°
2026-04-19 05:46 25.61943 -79.57288 34020 ft 440 kts 288°
2026-04-19 05:46 25.63372 -79.63832 34020 ft 440 kts 288°
2026-04-19 05:47 25.64802 -79.70344 34023 ft 441 kts 289°
2026-04-19 05:47 25.66505 -79.76648 34028 ft 440 kts 290°
2026-04-19 05:48 25.68270 -79.83128 34028 ft 440 kts 290°
2026-04-19 05:48 25.70011 -79.89576 34029 ft 439 kts 290°
2026-04-19 05:49 25.71724 -79.95956 34030 ft 439 kts 290°
2026-04-19 05:49 25.73411 -80.02267 34038 ft 439 kts 290°
2026-04-19 05:50 25.75088 -80.08553 34040 ft 438 kts 290°
2026-04-19 05:50 25.76787 -80.14939 34042 ft 438 kts 289°
2026-04-19 05:51 25.78506 -80.21419 34044 ft 438 kts 289°
2026-04-19 05:51 25.80208 -80.27844 34042 ft 436 kts 289°
2026-04-19 05:52 25.81914 -80.34296 34042 ft 438 kts 289°
2026-04-19 05:52 25.83617 -80.40753 34041 ft 438 kts 289°
2026-04-19 05:53 25.85306 -80.47168 34039 ft 438 kts 289°